O3B FM20

Last updated on Thu Dec 28 2023 00:03:05 GMT+0000 (Coordinated Universal Time)

1 44112U 19020A 23361.50605992 -.00000024 00000+0 00000+0 0 9990 2 44112 0.0465 3.3942 0002579 262.9407 93.6339 5.00115818 86414
UTC large
Height (km)
Speed (km/s)
/
Latitude / Longitude
Inclination (degrees)
Orbital Period (minutes)
Azimuth
Elevation
Range (km)
Doppler Factor

Next 0 passes for location: London (51.5072 / 0.1276)

Sorry there are no passes over London.